Regional Weather Roundup
Issued by NWS

Home | Current Version | Previous Version | Text Only | Print | Product List | Glossary Off
Versions: 1 2 3 4 5 6 7 8 9 10 11 12 13 14 15 16 17 18 19 20 21 22 23 24 25 26 27 28 29 30 31 32 33 34 35 36 37 38 39 40 41 42 43 44 45 46 47 48 49 50

689
ASUS45 KTFX 010510
RWRMT
MONTANA REGIONAL WEATHER ROUNDUP
NATIONAL WEATHER SERVICE GREAT FALLS MT
1100 PM MDT SAT APR 30 2016

NOTE: "FAIR" INDICATES FEW OR NO CLOUDS BELOW 12000 FEET WITH NO
SIGNIFICANT WEATHER AND/OR OBSTRUCTIONS TO VISIBILITY.

MTZ001>007-043-010600-
WEST OF THE DIVIDE

CITY           SKY/WX    TMP DP  RH WIND       PRES   REMARKS
KALISPELL      CLOUDY    52  35  52 N8        30.28R
MISSOULA       CLOUDY    51  40  65 SE3       30.29R
BUTTE          CLOUDY    43  29  57 VRB5G17   30.29R
MULLAN PASS    PTCLDY    38  30  73 VRB3      30.29S
ANACONDA         N/A     43  34  70 N7        30.29S
DEER LODGE       N/A     43  36  75 N5        30.31S
EUREKA           N/A     45  34  65 CALM      30.30R
HAMILTON         N/A     48  39  71 CALM      30.27R
LIBBY            N/A     48  37  66 SE6       30.29R
PLAINS           N/A     44  38  79 CALM      30.26R
THOMPSON FALLS   N/A     43  38  82 CALM      30.30R
$$

MTZ008-052>055-010600-
SOUTHWEST MONTANA

CITY           SKY/WX    TMP DP  RH WIND       PRES   REMARKS
BOZEMAN        CLOUDY    45  31  58 E5        30.29S
DILLON         CLOUDY    41  31  67 NE8       30.25R
ENNIS          CLOUDY    39  32  75 N15       30.30S WCI  31
THREE FORKS      N/A     45  25  45 CALM      30.26R
TWIN BRIDGES     N/A     42  27  55 N14       30.20R
$$

MTZ009-010-012-014-046-048-049-054-010600-
EAST SLOPES AND CENTRAL MONTANA

CITY           SKY/WX    TMP DP  RH WIND       PRES   REMARKS
CUT BANK       PTCLDY    45  35  68 NW3       30.34R
GREAT FALLS    CLEAR     42  33  70 E6        30.33R
HELENA         MOCLDY    41  35  79 W7        30.30S
CHOTEAU          N/A     43  41  93 NW7       30.34S
CONRAD           N/A     39  38  97 N2        30.33R
$$

MTZ011-013-016-021-045-047-050-051-010600-
NORTH CENTRAL MONTANA

CITY           SKY/WX    TMP DP  RH WIND       PRES   REMARKS
HAVRE          CLEAR     45  36  70 SE3       30.33R
LEWISTOWN      CLOUDY    45  35  68 S3        30.34R
N BAR RANCH    CLOUDY    39  34  81 CALM      30.36S
CHINOOK          N/A     43  37  81 CALM      30.33S
$$

MTZ017>020-022>027-061-062-010600-
NORTHEAST MONTANA

CITY           SKY/WX    TMP DP  RH WIND       PRES   REMARKS
GLASGOW        CLEAR     45  30  55 E6        30.31S
JORDAN           N/A     39  35  86 CALM      30.31R
SIDNEY         CLEAR     43  30  61 NW7       30.31S
WOLF POINT     CLEAR     43  33  68 N5        30.32R
PLENTYWOOD       N/A     46  25  42 NE7       30.33R
POPLAR           N/A     46  28  49 NE5       30.33R
SCOBEY           N/A     38  21  50 CALM      30.29S
$$

MTZ028>42-056>058-010600-
SOUTHCENTRAL AND SOUTHEAST MONTANA

CITY           SKY/WX    TMP DP  RH WIND       PRES   REMARKS
BAKER          CLEAR     37  29  72 E5        30.30S
BILLINGS       CLOUDY    43  34  70 N3        30.31S
LIVINGSTON     CLOUDY    41  34  76 E6        30.31R
MILES CITY     CLEAR     45  33  63 NE6       30.30R
EKALAKA          N/A     38  26  62 E3        30.24S
FORSYTH          N/A     45  34  65 CALM      30.29S
LAUREL           N/A     45  31  58 CALM      30.27R
ROUNDUP          N/A     45  31  58 CALM      30.21R
$$

REGIONAL REPORTS...DAKOTAS

CITY           SKY/WX    TMP DP  RH WIND       PRES   REMARKS
WILLISTON      CLEAR     41  30  65 N5        30.31R
MINOT          CLEAR     43  27  53 N7        30.30R
DICKINSON      CLEAR     43  26  51 NE5       30.27S
BEACH            N/A     37  30  75 CALM      30.33S
CROSBY           N/A     39  25  56 SE3       30.35S
TIOGA            N/A     36  27  69 NE7       30.37S WCI  30
WATFORD CITY     N/A     34  28  80 CALM      30.31S
BISMARCK       CLEAR     39  31  72 E5        30.27R
GRAND FORKS    CLEAR     48  28  46 NE9       30.25S
FARGO          CLEAR     49  28  44 NE13      30.20S
BUFFALO SD       N/A     41  27  57 N9        30.21S
RAPID CITY     CLOUDY    39  31  72 N9        30.23R
$$

REGIONAL REPORTS...WYOMING/IDAHO/WASHINGTON

CITY           SKY/WX    TMP DP  RH WIND       PRES   REMARKS
GILLETTE       PTCLDY    37  30  75 VRB3      30.27R
SHERIDAN       CLOUDY    42  36  79 SE3       30.30R
BUFFALO WY       N/A    N/A N/A N/A MISG      30.29S
CODY           CLOUDY    41  30  65 NW9       30.29R
YELLOWSTONE LA   N/A     32  23  69 VRB3      30.28R
IDAHO FALLS    CLOUDY    47  32  56 S10       30.11R
SALMON         CLOUDY    46  39  76 E6        30.21S
BOISE          PTCLDY    52  37  56 NW8       30.07R
SPOKANE        PTCLDY    53  43  68 NE3       30.26R
$$

REGIONAL REPORTS...ALBERTA

CITY           SKY/WX    TMP DP  RH WIND       PRES   REMARKS
EDMONTON       PTCLDY    50  30  46 SW5       30.22S
CALGARY        PTCLDY    46  32  57 S6        30.30S
LETHBRIDGE     CLEAR     45  36  70 SW17      30.32R
MEDICINE HAT   CLEAR     45  39  81 SW6       30.32R
WATERTON GATE    N/A     43  36  75 CALM        N/A
MILK RIVER       N/A     39  36  87 S2          N/A
$$

REGIONAL REPORTS...SASKATCHEWAN

CITY           SKY/WX    TMP DP  RH WIND       PRES   REMARKS
SWIFT CURRENT  CLEAR     46  27  46 S9        30.31R
REGINA         CLEAR     46  25  42 E8        30.33R
SASKATOON      CLEAR     48  27  43 S8        30.29S
CYPRESS HILLS    N/A     43  28  56 NW3         N/A
VAL MARIE        N/A     37  28  70 NE3         N/A
ROCKGLEN         N/A     43  27  52 SW2         N/A
ASSINIBOIA       N/A     48  34  57 S7          N/A
$$




USA.gov is the U.S. government's official web portal to all federal, state and local government web resources and services.